Flag for Austria Weather past 2 weeks in Waidhofen an der Ybbs, Lower Austria, Austria

Now
58 °F

Cool.


Feels Like: 58 °F
Forecast: 57 / 90 °F
Wind: 2 mph from Southeast

Location: Amstetten

Current Time: Aug 3, 2015 at 2:37:46 AM

Latest Report: Aug 3, 2015 at 2:00 AM


Visibility: N/A

Pressure: 30.14 "Hg

Humidity: 100%

Dew point: 58 °F

Location of Waidhofen an der YbbsLocation

Historic Weather in Waidhofen an der Ybbs — Graph

°F

Waidhofen an der Ybbs temperature yesterday

Maximum temperature yesterday: 69 °F (at 12:00 AM)
Minimum temperature yesterday: 61 °F (at 10:00 AM)
Average temperature yesterday: 64 °F

Past Weeks' High & Low Weather Summary

 TemperatureHumidityPressure
High97 °F (Jul 22, 4:00 PM)100% (Aug 3, 1:00 AM)30.16 "Hg (Aug 3, 1:00 AM)
Low55 °F (Jul 29, 7:00 AM)23% (Jul 31, 5:00 PM)29.67 "Hg (Jul 25, 4:00 AM)
Average71 °F65%29.90 "Hg
* Reported Jul 19 1:00 AM — Aug 3 1:00 AM, Waidhofen an der Ybbs, Weather by CustomWeather, © 2015

Note: Actual official high and low records may vary slightly from our data, if they occured in-between our weather recording intervals... More about our weather records

Advertising

Waidhofen an der Ybbs weather history for previous 24 hours

 ConditionsComfort  
Time TempWeatherWind HumidityBarometerVisibility
1:00 AM
Mon, Aug 3
59 °FCool.1 mph100%30.15 "HgN/A
12:00 AM58 °FCool.No wind98%30.16 "HgN/A
10:00 PM
Sun, Aug 2
61 °FCool.1 mph96%30.15 "HgN/A
9:00 PM64 °FMild.No wind88%30.13 "HgN/A
8:00 PM66 °FMild.No wind81%30.12 "HgN/A
7:00 PM65 °FMild.1 mph83%30.13 "HgN/A
6:00 PM65 °FMild.2 mph82%30.14 "HgN/A
5:00 PM65 °FMild.2 mph84%30.14 "HgN/A
4:00 PM65 °FMild.2 mph86%30.14 "HgN/A
3:00 PM63 °FMild.2 mph92%30.14 "HgN/A
2:00 PM62 °FCool.3 mph97%30.14 "HgN/A
1:00 PM61 °FCool.3 mph95%30.14 "HgN/A
12:00 PM62 °FMild.2 mph95%30.12 "HgN/A
11:00 AM62 °FCool.2 mph96%30.11 "HgN/A
10:00 AM61 °FFog.2 mph97%30.10 "HgN/A
9:00 AM62 °FCool.2 mph92%30.09 "HgN/A
8:00 AM62 °FOvercast.2 mph95%30.07 "HgN/A
7:00 AM62 °FFog.2 mph95%30.06 "HgN/A
6:00 AM63 °FFog.2 mph89%30.04 "HgN/A
5:00 AM64 °FMild.2 mph81%30.02 "HgN/A
4:00 AM66 °FMild.1 mph74%30.01 "HgN/A
3:00 AM67 °FMild.1 mph68%30.00 "HgN/A
2:00 AM69 °FMild.1 mph62%29.99 "HgN/A
Weather by CustomWeather, © 2015

See weather overviewHow to use our weather pages